Location: Kershaw
(34.5481°N, 80.5823°W)
Time: 11:17:05
(UTC+00:00)

SR - Visible Passes

Search period start: 05 October 2022 00:00
Search period end: 15 October 2022 00:00
Orbit: 574 x 879 km, 66.7° (Epoch: 04 October)

Date Brightness Start Highest point End Pass type
(mag) Time Alt. Az. Time Alt. Az. Time Alt. Az.
05 Oct ? 01:35:24 10° SW 01:38:51 37° SW 01:38:51 37° SW visible
05 Oct ? 10:20:55 10° NNW 10:25:52 41° ENE 10:30:23 10° SE visible
06 Oct ? 00:45:17 10° SSW 00:51:00 62° ESE 00:52:39 45° NE visible
06 Oct ? 02:29:13 10° W 02:32:13 19° WNW 02:32:13 19° WNW visible
06 Oct ? 09:31:25 10° N 09:35:18 20° NE 09:38:57 10° E visible
06 Oct ? 23:56:01 10° SSE 00:01:00 30° ESE 00:06:04 10° NE visible
07 Oct ? 01:37:31 10° SW 01:42:55 38° WNW 01:45:54 23° N visible
07 Oct ? 08:43:32 10° NNE 08:44:29 10° NE 08:45:26 10° NE visible
07 Oct ? 10:22:17 10° NNW 10:27:31 81° ENE 10:32:14 10° SSE visible
08 Oct ? 00:46:42 10° SSW 00:52:33 73° WNW 00:58:28 10° NNE visible
08 Oct ? 02:33:23 10° WNW 02:35:35 12° NW 02:37:47 10° NNW visible
08 Oct ? 09:32:20 10° N 09:37:10 36° ENE 09:41:34 10° SE visible
08 Oct ? 23:56:41 10° S 00:02:23 56° ESE 00:08:09 10° NE visible
09 Oct ? 01:40:17 10° WSW 01:44:48 22° NW 01:49:18 10° N visible
09 Oct ? 08:42:56 10° N 08:46:34 19° NE 08:49:58 10° E visible
09 Oct ? 10:24:01 10° NW 10:28:57 49° WSW 10:33:26 10° S visible
10 Oct ? 00:48:43 10° SW 00:54:14 41° WNW 00:59:47 10° NNE visible
10 Oct ? 09:34:02 12° NNW 09:38:50 72° ENE 09:43:30 10° SSE visible
10 Oct ? 23:58:01 10° SSW 00:03:53 80° WNW 00:09:49 10° NNE visible
11 Oct ? 01:44:09 10° WNW 01:46:50 13° NW 01:49:30 10° NNW visible
11 Oct ? 08:47:44 32° NE 08:48:26 33° NE 08:52:44 10° ESE visible
11 Oct ? 10:27:17 14° WNW 10:30:12 24° WSW 10:33:54 10° SSW visible
11 Oct ? 23:08:05 10° S 23:13:43 51° ESE 23:19:25 10° NE visible
12 Oct ? 00:51:22 10° WSW 00:56:04 24° NW 01:00:45 10° N visible
12 Oct ? 09:40:52 51° SW 09:40:52 51° SW 09:44:48 10° S visible
12 Oct ? 23:59:56 10° SW 00:05:31 45° WNW 00:11:09 10° NNE visible
13 Oct ? 08:54:13 13° SE 08:54:13 13° SE 08:54:44 10° SE visible
13 Oct ? 23:09:19 10° SSW 23:15:12 88° WNW 23:21:07 10° NNE visible
14 Oct ? 00:54:58 10° WNW 00:58:03 14° NW 01:01:07 10° NNW visible
